This is the latest recevied weather packets stored in our database for station/object E23JWE-1. If no packets are shown the sender has not sent any weather packets the latest 10 day(s).
| Time | Temp. | Humidity | Pressure | Rain* | Wind** | Luminosity | Snow |
|---|---|---|---|---|---|---|---|
| 1777921782 | 31.11° C | 99% | 1008 hPa | - | - | 0 W/m² | - |
| 1777919957 | 31.67° C | 99% | 1009 hPa | - | - | 0 W/m² | - |
| 1777918131 | 31.67° C | 98% | 1009 hPa | - | - | 0 W/m² | - |
| 1777916305 | 31.67° C | 97% | 1010 hPa | - | - | 0 W/m² | - |
| 1777914479 | 31.67° C | 96% | 1010 hPa | - | - | 0 W/m² | - |
| 1777912654 | 31.67° C | 98% | 1010 hPa | - | - | 0 W/m² | - |
| 1777910828 | 31.67° C | 97% | 1010 hPa | - | - | 0 W/m² | - |
| 1777909003 | 32.22° C | 95% | 1010 hPa | - | - | 0 W/m² | - |
| 1777907177 | 32.22° C | 94% | 1010 hPa | - | - | 0 W/m² | - |
| 1777905352 | 32.22° C | 94% | 1010 hPa | - | - | 0 W/m² | - |
| 1777903526 | 32.22° C | 93% | 1009 hPa | - | - | 0 W/m² | - |
| 1777901700 | 32.22° C | 93% | 1009 hPa | - | - | 0 W/m² | - |
| 1777899875 | 32.22° C | 88% | 1008 hPa | - | - | 0 W/m² | - |
| 1777898049 | 32.22° C | 87% | 1008 hPa | - | - | 0 W/m² | - |
| 1777896224 | 32.22° C | 82% | 1008 hPa | - | - | 0 W/m² | - |
| 1777894398 | 32.22° C | 83% | 1007 hPa | - | - | 0 W/m² | - |
| 1777892572 | 32.78° C | 86% | 1007 hPa | - | - | 10 W/m² | - |
| 1777890747 | 32.78° C | 89% | 1007 hPa | - | - | 16 W/m² | - |
| 1777888921 | 33.33° C | 87% | 1007 hPa | - | - | 34 W/m² | - |
| 1777887095 | 33.33° C | 84% | 1006 hPa | - | - | 53 W/m² | - |
| 1777885270 | 32.78° C | 86% | 1007 hPa | - | - | 50 W/m² | - |
| 1777883445 | 32.78° C | 80% | 1007 hPa | - | - | 47 W/m² | - |
| 1777881619 | 32.78° C | 88% | 1007 hPa | - | - | 41 W/m² | - |
| 1777879793 | 32.78° C | 89% | 1008 hPa | - | - | 37 W/m² | - |
| 1777877968 | 32.22° C | 95% | 1008 hPa | - | - | 35 W/m² | - |
* Rain since midnight (hover to see other rain measurements)
** Current wind speed in m/s (hover to see current wind gust speed)